Location: Sabalos
(43.2860°N, 0.1414°E)
Time: 21:11:38
(UTC+00:00)

Cosmos 1825 - Pass Details

Date: 05 July 2020
Orbit: 502 x 509 km, 82.5° (Epoch: 14 August)

Event Time Altitude Azimuth Distance (km) Brightness Sun altitude
Exits shadow 21:58:00 14° 80° (E) 1,513 4.3 -17.9°
Drops below altitude 10° 21:59:39 10° 55° (NE) 1,732 4.9 -18.1°
Sets 22:02:38 0° 29° (NNE) 2,625 6.2 -18.4°
